Content
SEND FEEDBACK

Daily
Averages
Monthly
Summary
United States of America

HINGHAM, MASSACHUSETTS


Home > North America > United States > Massachusetts
Elevation: 3 feet     Latitude: 42 14N     Longitude: 070 55W

WEATHER
 
SELECT A DAY
Number of Records: 133,226;   Date Range: 10/15/98 - 9/18/14
 
SHARE

PRINT THIS DATA

[ ← Previous Day ]
WEATHER ALMANAC - JANUARY 6, 2013
[ Next Day → ]
[ °C ]   °F
Weather ElementAverageHighLow
Temperature33.6 °F41 °F (2:54 pm)27 °F (5:54 am)
Dewpoint23.6 °F27 °F (8:54 am)15.1 °F (1:54 am)
Humidity67.4 %89 % (5:54 am)53 % (2:54 pm)
Barometer30.04 in30.23 in (1:54 am)29.96 in (1:54 pm)
Wind Speed10.5 mph16.1 mph (7:54 am)
Wind Gust28.8 mph (10:54 am)
Weather ElementAverage
Wind DirectionWSW (237.4 °)

Weather ElementTotal
Precipitation---
Heating Degree Days31 (Base 65)
Averaged from 23 records on January 6, 2013
WEATHER CONDITIONS BREAKOUT
WIND DIRECTION BREAKOUT
WEATHER BY HOUR - JANUARY 6, 2013
[ °C ]   °F
Local TimeTemperatureDewpointHumidityBarometerVisibilityWind DirectionWind SpeedGust SpeedPrecipitationEventsConditions
1:54 AM28.0 °F15.1 °F58 %30.23 inWSW (240°)5.8 mph
2:54 AM28.9 °F16.0 °F58 %30.20 inSSW (200°)8.1 mph
3:54 AM28.9 °F15.1 °F56 %30.17 inSW (220°)9.2 mph
4:54 AM30.0 °F16.0 °F56 %30.14 inSW (230°)8.1 mph
5:54 AM27.0 °F24.1 °F89 %30.11 inSSW (200°)11.5 mph
6:54 AM28.0 °F25.0 °F88 %30.10 inSSW (200°)15.0 mph
7:54 AM28.9 °F26.1 °F89 %30.09 inSSW (210°)16.1 mph21.9 mph
8:54 AM30.0 °F27.0 °F88 %30.09 inSSW (210°)12.7 mph
9:54 AM33.1 °F27.0 °F78 %30.07 inSSW (210°)15.0 mph
10:54 AM35.1 °F26.1 °F70 %30.04 inWSW (240°)12.7 mph28.8 mph
11:54 AM37.9 °F26.1 °F62 %29.99 inWSW (240°)15.0 mph24.2 mph
12:54 PM39.0 °F26.1 °F60 %29.97 inSW (230°)9.2 mph17.3 mph
1:54 PM39.9 °F25.0 °F55 %29.96 inWSW (250°)11.5 mph18.4 mph
2:54 PM41.0 °F25.0 °F53 %29.96 inWest (260°)10.4 mph
3:54 PM37.9 °F25.0 °F60 %29.96 inWNW (290°)8.1 mph
4:54 PM36.0 °F25.0 °F64 %29.97 inWNW (290°)11.5 mph
5:54 PM34.0 °F24.1 °F67 %29.99 inWNW (300°)5.8 mph
6:54 PM36.0 °F24.1 °F62 %29.99 inWest (260°)6.9 mph
7:54 PM37.0 °F24.1 °F59 %29.99 inSW (230°)8.1 mph
8:54 PM36.0 °F25.0 °F64 %29.98 inSW (230°)10.4 mph
9:54 PM36.0 °F26.1 °F67 %29.99 inWSW (240°)10.4 mph
10:54 PM33.1 °F25.0 °F72 %29.98 inWSW (240°)10.4 mph
11:54 PM32.0 °F25.0 °F75 %29.98 inWSW (240°)10.4 mph
Hourly data recorded from KMQE, located miles away from Hingham, Massachusetts







STORIES FROM OUR PARTNERS